Miscellaneous Local Product
Issued by NWS Hastings, NE

Home | Current Version | Previous Version | Text Only | Print | Product List | Glossary On
Versions: 1 2 3 4 5 6 7 8 9 10 11 12 13 14 15 16 17 18 19 20 21 22 23 24 25 26 27 28 29 30 31 32 33 34 35 36 37 38 39 40 41 42 43 44 45 46 47 48 49 50
000
AXUS43 KGID 271302
MISGRI

GID CWA HOURLY WEATHER ROUNDUP
NATIONAL WEATHER SERVICE HASTINGS NE
700 AM CST SAT DEC 27 2014

NOTE: "FAIR" INDICATES FEW OR NO CLOUDS BELOW 12,000 FEET WITH NO
SIGNIFICANT WEATHER AND/OR OBSTRUCTIONS TO VISIBILITY.

...SOUTH CENTRAL NEBRASKA...

CITY           SKY/WX    TMP DP  RH WIND       PRES   REMARKS
GRAND ISLAND   PTCLDY     7   4  87 W10       30.23R WCI  -8
HASTINGS       PTCLDY    10   7  87 W8        30.21R WCI  -2
KEARNEY        PTCLDY     9   3  78 W7        30.22R WCI  -3
ORD            CLEAR      7   4  87 NW7       30.17S WCI  -5
YORK           CLEAR     16  12  86 NW10      30.22R WCI   3
AURORA         PTCLDY    13  10  90 NW9       30.20R WCI   1
LEXINGTON      PTCLDY     2  -1  85 W7        30.21R WCI -10
HOLDREGE       PTCLDY    10   6  87 W3        30.21R
HEBRON         PTCLDY    17  13  82 NW9       30.24R WCI   6

...NEBRASKA PANHANDLE...

CITY           SKY/WX    TMP DP  RH WIND       PRES   REMARKS
CHADRON        PTCLDY     7   3  84 CALM      30.15R
ALLIANCE       PTCLDY    -4  -7  87 W7        30.12R WCI -18
SCOTTSBLUFF    PTCLDY     0  -4  83 NW12      30.15R WCI -17
SIDNEY         PTCLDY     0  -5  79 W15       30.12R WCI -19

...WESTERN AND NORTH CENTRAL NEBRASKA...

CITY           SKY/WX    TMP DP  RH WIND       PRES   REMARKS
VALENTINE      CLEAR      3   0  87 W8        30.16R WCI -10
AINSWORTH      PTCLDY     6   3  88 W7        30.15S WCI  -6
ONEILL         CLEAR     11  10  96 W6        30.17S WCI   2
BROKEN BOW     PTCLDY    13   8  81 NW9       30.15F WCI   1
IMPERIAL       CLOUDY    13   8  81 W8        30.18R WCI   2
NORTH PLATTE   PTCLDY     1  -2  87 NW7       30.18R WCI -12
MCCOOK         CLOUDY     7   4  87 SW10      30.23R WCI  -8

...EASTERN NEBRASKA...

CITY           SKY/WX    TMP DP  RH WIND       PRES   REMARKS
NORFOLK        CLEAR     13  10  88 W10       30.18R WCI   0
SO SIOUX CITY  PTCLDY    19  15  84 NW13      30.17R WCI   6
TEKAMAH        CLEAR     21  16  81 NW15      30.18R WCI   8
COLUMBUS       CLEAR     16   7  67 NW15      30.19R WCI   1
ALBION         PTCLDY    12   8  84 NW9       30.18S WCI  -1
OMAHA EPPLEY   PTCLDY    23  19  85 NW13      30.18R WCI  11
OFFUTT AFB     CLEAR     23  19  83 NW14      30.16R WCI  11
MILLARD        CLEAR     23  19  83 NW9       30.17S WCI  13
LINCOLN        CLEAR     20  15  81 NW14      30.22R WCI   7
NEBRASKA CITY  CLOUDY    24  22  90 N10G20    30.19R WCI  14
BEATRICE       CLEAR     20  16  86 NW15      30.21R WCI   6
FALLS CITY     CLOUDY    27  21  78 NW16G22   30.20R WCI  15

...NORTHERN KANSAS...

CITY           SKY/WX    TMP DP  RH WIND       PRES   REMARKS
GOODLAND       PTCLDY     6   3  87 W10       30.20R WCI  -9
HILL CITY      MOCLDY     9   5  84 W8        30.27R WCI  -3
NORTON         CLOUDY    12   9  85 W7        30.25R WCI   2
PHILLIPSBURG   CLEAR     10   7  85 W7        30.28R WCI   0
BELOIT         CLEAR     18  14  86 NW8       30.26S WCI   7
HAYS           PTCLDY    14   3  62 NW12      30.24R WCI   0
RUSSELL        PTCLDY    15  12  88 NW9       30.24R WCI   3
CONCORDIA      PTCLDY    19  15  84 NW12      30.23R WCI   7
SALINA         PTCLDY    23  17  78 NW12      30.27R WCI  12
TOPEKA         CLOUDY    30  23  75 W12G18    30.23R WCI  20



USA.gov is the U.S. government's official web portal to all federal, state and local government web resources and services.